Temperature
21 21 19 18 17 17 17 17 17 16 16 16 16 16 15 15 15 15 15 15 15 14 14 14 14 14 14 14 15 15 15 15 15 15 15 15 15 15 14 14 13 13 13
22 21 19 18 17 17 17 17 16 16 16 16 16 15 15 15 15 15 15 15 14 14 14 14 14 14 14 14 14 14 15 15 15 15 15 14 14 14 14 14 13 13 13
21 21 19 18 17 17 16 16 16 16 16 16 16 15 15 15 15 15 15 15 14 14 14 14 14 14 14 14 14 14 14 15 15 15 14 13 14 14 14 14 13 13 13
20 20 19 18 17 17 16 16 16 16 16 16 16 15 15 15 15 15 15 15 14 14 14 14 14 14 14 14 14 14 14 14 14 14 13 13 13 14 14 13 13 13 13
19 19 18 18 17 16 16 16 16 16 16 16 16 16 16 16 15 15 15 14 14 14 14 14 14 14 14 14 14 14 14 14 14 13 13 13 13 13 13 13 13 13 13
18 18 18 17 17 16 16 16 16 16 16 16 16 16 16 16 16 15 15 14 14 14 14 14 14 14 14 14 14 14 14 14 13 13 13 13 13 13 13 13 13 13 13
17 17 18 17 16 16 16 16 16 16 17 17 17 16 16 16 16 15 15 14 14 14 14 14 14 14 14 14 14 14 14 13 12 12 12 13 13 13 13 13 13 13 13
17 17 17 16 16 16 16 16 16 17 17 17 17 17 17 16 16 15 15 14 14 14 14 14 14 14 14 14 14 14 13 13 12 12 12 12 13 13 13 13 13 13 13
17 17 16 16 15 15 16 16 16 16 17 17 17 17 17 16 16 16 15 15 14 14 14 14 14 14 14 14 14 13 13 13 12 12 12 12 12 12 12 12 13 13 13
16 16 16 16 15 15 16 16 16 16 17 17 16 16 16 16 16 16 15 15 14 14 14 14 14 14 14 14 14 13 13 13 12 12 12 12 12 12 12 12 12 12 12
16 16 16 15 15 15 15 16 16 16 16 16 16 16 16 15 15 15 15 15 15 14 14 14 14 14 14 14 13 13 13 12 12 12 12 12 12 12 12 12 12 12 12
16 16 16 16 15 15 15 16 16 16 16 16 15 16 15 14 14 14 15 15 15 15 14 14 14 14 14 13 13 13 12 12 12 11 11 12 12 12 12 12 12 12 12
16 16 16 16 16 16 16 16 16 16 16 16 15 15 15 14 15 15 15 15 15 15 14 14 14 14 13 13 13 12 12 12 12 11 11 12 11 11 12 12 11 11 11
15 16 16 16 16 16 16 16 16 16 16 16 16 16 15 15 15 15 15 15 15 14 14 14 14 13 13 13 13 12 12 12 12 11 11 12 11 11 11 11 11 11 10
15 16 16 16 16 16 16 16 16 16 16 16 16 16 16 15 15 15 14 14 14 14 14 14 13 13 13 13 12 12 12 12 12 11 11 11 11 11 11 11 10 10 10
15 15 16 16 16 16 16 16 16 16 16 16 16 16 16 15 15 14 14 14 14 14 14 14 13 13 13 12 12 12 12 12 12 11 11 11 11 11 10 10 10 10 9
15 15 16 16 16 16 17 16 16 16 16 16 16 16 15 15 15 15 14 14 14 14 13 13 13 12 12 12 12 12 12 12 12 11 11 10 10 11 10 10 10 10 10
15 16 16 16 17 17 17 17 16 16 16 16 16 16 15 15 15 14 14 14 13 13 13 13 13 12 12 12 12 12 12 12 11 11 11 11 10 10 10 10 10 10 9
16 16 16 16 17 17 17 17 17 16 16 16 16 16 16 15 15 14 14 14 13 13 13 13 12 12 12 12 11 11 11 11 11 11 11 11 11 10 10 10 10 9 9
16 16 16 16 17 17 16 16 16 16 17 17 16 16 16 16 15 14 14 14 13 13 13 13 12 12 11 11 11 11 11 11 11 11 11 11 11 11 10 10 9 9 9
16 17 17 16 16 16 16 16 16 17 17 17 17 17 16 16 15 15 14 14 13 13 13 13 12 12 11 11 11 10 11 11 11 11 11 11 11 10 10 10 9 9 9
16 16 16 16 16 16 16 16 16 16 16 17 17 17 17 16 16 15 15 15 14 14 13 12 12 12 12 11 11 10 10 10 11 11 11 11 10 10 10 10 9 9 8
15 15 16 16 16 16 16 15 15 15 15 15 16 17 17 17 16 16 16 15 15 14 13 13 13 12 12 12 11 10 10 11 10 11 11 11 10 10 9 9 9 8 8
14 14 15 15 15 15 15 15 15 14 14 15 16 16 16 16 16 16 15 15 14 14 14 13 13 12 12 12 11 11 10 11 11 11 11 11 10 10 9 9 8 8 7
13 13 14 14 14 15 15 15 14 14 14 14 14 14 15 15 15 15 14 14 14 13 13 13 13 12 12 12 12 11 11 10 10 10 10 10 10 9 8 8 7 7 7
12 13 13 13 14 14 14 14 14 14 14 13 13 13 14 14 14 14 13 13 13 13 13 12 12 12 12 11 11 11 11 10 10 10 9 9 9 9 8 7 6 6 6
Wind_Speed
12 18 20 20 19 19 19 19 18 17 16 15 15 14 13 11 10 9 8 8 7 8 9 11 12 13 14 14 14 13 12 12 12 12 12 11 10 10 10 8 5 9 9
16 20 21 20 19 19 19 19 18 17 16 15 14 13 12 10 9 8 7 6 6 8 10 11 13 14 14 14 13 12 12 11 11 11 9 10 9 9 8 7 7 8 7
18 20 21 19 19 19 20 19 18 17 15 14 13 12 11 9 8 7 6 5 6 9 10 12 14 14 14 13 12 12 11 11 10 8 4 8 9 8 7 6 6 6 5
18 19 20 20 19 19 20 19 18 16 15 14 13 11 10 8 7 7 6 6 8 10 11 13 14 14 13 12 11 11 10 10 8 3 6 8 8 7 6 5 5 6 6
16 18 19 20 19 19 20 19 18 16 15 14 12 11 9 8 8 8 7 8 10 11 12 14 14 13 12 11 10 10 9 9 6 4 8 7 8 7 7 7 6 7 7
16 17 19 20 19 20 20 19 17 16 15 13 12 10 9 9 8 8 9 9 11 12 13 14 13 13 11 10 9 9 8 6 5 8 7 7 8 8 8 9 8 9 11
15 16 19 19 19 19 19 18 17 16 14 13 12 10 9 9 9 9 9 10 12 12 13 13 12 11 10 9 8 8 7 4 5 7 7 8 9 10 12 12 13 13 14
14 15 17 18 18 18 17 16 16 15 14 13 12 11 10 10 10 9 9 10 11 12 12 12 11 10 9 8 8 7 7 4 5 6 6 8 10 11 13 14 15 15 15
14 14 15 17 16 17 16 15 15 14 14 14 12 11 10 11 10 10 9 10 11 11 11 11 10 9 8 7 7 7 6 4 4 5 5 7 10 10 12 13 13 13 14
13 13 14 15 15 15 15 15 15 14 14 14 13 12 12 12 11 10 9 9 9 10 10 10 9 8 8 7 7 7 7 5 4 5 4 8 9 10 11 12 12 12 12
12 12 12 13 13 13 13 14 14 14 14 14 13 14 14 11 11 10 9 8 9 9 9 9 9 9 8 7 7 7 6 4 4 3 5 8 8 9 10 10 10 11 11
13 13 12 12 12 12 10 12 12 13 14 14 13 14 12 10 9 9 10 8 8 9 9 9 10 9 6 6 7 7 5 4 4 4 6 8 8 10 10 10 9 9 9
13 12 12 12 12 12 10 10 10 10 12 13 13 14 12 10 9 9 9 10 9 10 9 9 9 7 6 5 5 5 4 4 4 4 7 9 9 10 9 9 8 8 8
12 13 12 12 11 12 11 10 10 10 10 11 13 15 13 10 9 9 8 9 9 9 8 8 7 7 6 6 6 6 6 5 5 4 7 10 10 10 9 8 7 7 7
11 12 13 13 12 11 11 9 10 10 11 13 13 15 14 11 10 10 9 9 9 9 9 8 8 7 7 7 6 6 6 6 6 5 7 10 10 10 8 8 7 6 6
12 12 13 13 13 12 11 10 10 11 12 13 13 15 16 14 11 10 10 10 10 10 9 9 9 7 7 6 6 7 7 6 6 6 7 9 10 10 9 8 7 6 5
12 13 14 14 14 14 14 13 11 12 13 12 13 16 17 16 14 12 10 10 11 11 11 9 9 7 6 6 7 7 7 7 7 8 8 8 9 10 9 9 7 6 5
13 13 14 13 15 16 15 13 12 12 13 13 14 15 18 19 17 14 11 11 12 12 11 9 8 8 7 7 7 6 6 6 8 8 8 8 8 9 9 9 8 7 5
12 13 14 15 16 16 15 13 12 12 13 13 14 15 17 20 20 17 12 12 14 12 10 9 9 9 8 8 7 6 6 6 7 8 9 10 9 9 9 10 9 7 5
10 11 13 14 15 14 13 11 10 12 12 13 14 16 18 18 20 18 14 15 14 11 11 11 11 10 8 8 7 6 6 6 7 8 9 10 10 11 10 10 10 8 6
8 9 11 12 13 12 11 11 12 13 13 13 13 17 19 19 20 19 14 14 14 13 14 15 12 12 9 8 6 5 6 7 8 7 9 9 10 11 11 11 10 8 7
6 7 9 10 11 12 11 12 11 12 11 13 12 15 19 20 20 18 18 15 15 14 16 16 14 10 8 10 8 5 6 7 8 9 8 9 10 11 11 12 11 9 8
3 4 5 8 9 10 11 10 9 10 10 10 13 14 17 20 21 19 19 17 16 16 15 18 17 16 12 11 11 8 6 9 5 7 10 9 9 9 9 11 11 9 8
2 3 3 4 6 7 8 10 13 13 14 15 14 13 15 18 19 20 18 17 16 15 16 17 18 16 15 12 10 10 6 3 5 5 6 8 9 9 9 8 9 9 8
4 3 3 3 3 4 6 9 11 13 14 13 13 15 15 14 16 17 17 16 16 15 17 16 17 18 15 14 10 8 8 4 4 5 4 5 5 6 6 7 7 7 7
5 5 4 4 3 3 4 6 9 12 13 14 15 14 13 12 12 16 16 16 16 14 15 15 15 17 15 14 12 9 7 6 7 6 5 4 4 4 4 4 5 5 6
Wind_Direction
156 155 154 157 156 154 150 146 143 141 139 137 136 133 130 128 127 127 128 130 133 132 126 120 115 111 104 100 97 93 91 90 86 80 74 72 80 85 79 67 61 81 71
151 153 152 156 157 155 151 148 144 141 139 138 136 134 132 131 130 134 136 138 143 143 134 125 118 113 108 104 100 97 95 94 91 84 83 87 80 81 80 66 42 64 66
151 151 155 156 157 156 152 148 145 142 141 139 137 136 134 133 135 139 140 140 144 141 135 127 119 115 111 106 102 99 97 97 95 95 118 97 93 85 82 77 69 66 62
152 152 159 154 157 156 152 148 146 145 143 141 139 137 135 134 135 138 133 134 133 132 128 123 119 116 113 108 104 101 99 99 97 125 98 84 89 87 86 83 74 67 63
153 154 153 153 156 155 152 150 149 147 145 143 140 137 135 133 133 127 121 119 125 127 125 122 120 119 115 109 105 103 101 102 107 102 88 82 82 83 78 75 77 70 64
155 155 153 155 155 153 152 152 152 151 149 146 142 140 138 134 131 123 118 117 121 124 123 123 122 121 118 112 108 106 107 116 138 93 89 79 76 77 78 76 74 73 67
156 155 156 155 154 154 154 156 156 155 154 151 148 147 146 141 130 123 120 120 123 126 124 125 124 123 120 115 110 110 112 119 99 94 85 79 73 76 79 77 75 73 71
157 156 157 155 154 156 157 160 161 161 159 156 154 154 152 146 137 132 129 126 128 127 126 127 127 125 123 118 115 115 119 136 110 96 88 83 74 78 81 78 75 72 70
161 161 163 166 163 159 159 163 165 164 162 161 160 157 150 144 143 142 140 134 132 130 130 129 129 128 126 124 122 121 121 130 122 101 93 88 82 85 85 80 76 73 70
169 170 171 172 174 175 173 169 168 168 165 164 162 154 144 142 147 148 153 142 137 134 133 132 132 130 128 129 130 131 139 168 133 123 106 97 89 93 88 83 79 77 73
181 179 178 179 179 181 181 175 177 175 172 169 168 157 158 167 164 164 158 145 145 141 140 139 134 129 127 127 131 143 168 180 143 127 111 102 102 100 94 88 84 82 77
188 188 187 186 185 185 182 182 190 188 185 189 184 176 184 180 173 167 150 156 152 149 148 142 137 145 167 156 148 171 183 177 163 150 122 116 117 111 103 97 92 87 81
193 193 195 195 193 191 188 192 192 193 193 196 194 188 189 184 176 178 173 173 174 173 173 156 169 181 186 176 175 182 183 181 178 157 136 129 127 121 114 108 102 96 90
199 200 200 202 203 203 199 197 198 197 197 198 198 196 194 192 191 189 189 185 185 189 187 189 195 186 188 185 189 185 182 186 183 167 138 137 136 132 127 122 115 108 99
207 207 207 205 208 209 210 208 207 205 203 202 201 201 201 199 200 197 198 194 197 195 193 197 199 192 194 190 192 190 189 188 182 176 150 142 142 142 141 138 132 124 112
215 213 210 210 210 211 213 214 215 212 210 210 206 206 206 207 206 203 204 202 203 203 202 201 203 197 198 197 194 193 193 189 191 188 169 152 146 149 153 151 144 133 120
221 218 214 213 212 214 216 219 221 219 215 214 212 211 210 212 211 209 211 207 207 206 205 205 201 203 199 195 198 198 197 197 192 192 187 177 165 156 160 161 154 146 132
229 224 220 214 215 216 217 219 221 223 222 219 216 214 214 214 213 212 214 213 209 205 203 201 200 201 198 199 199 195 198 197 203 198 194 191 184 175 168 164 162 157 148
233 230 226 220 219 219 219 219 220 222 224 225 221 219 216 216 215 214 216 216 209 206 205 202 204 205 204 202 199 197 201 201 202 203 204 198 194 190 182 160 157 154 157
240 237 232 226 225 224 221 220 221 223 226 226 226 224 221 217 216 216 217 217 211 207 206 203 202 205 208 197 191 198 207 207 209 207 207 202 197 196 197 185 178 166 161
240 238 237 234 229 225 220 218 220 224 226 226 227 228 225 222 218 216 216 216 211 211 209 206 200 200 200 186 184 200 212 218 218 211 210 206 201 200 202 200 200 193 184
244 242 243 241 239 232 227 225 226 229 231 229 228 230 228 224 220 217 217 215 212 212 212 208 200 200 194 189 195 198 213 213 220 215 210 211 207 201 206 206 205 203 201
265 262 255 251 248 242 238 234 232 233 235 233 230 230 228 225 223 219 220 219 215 213 213 208 203 203 199 198 204 200 208 221 190 196 212 210 208 206 207 206 206 202 201
334 316 293 277 262 254 244 236 231 230 232 234 235 235 233 228 226 223 222 221 219 216 216 212 208 210 205 199 206 223 235 247 192 183 196 210 212 213 210 204 202 199 199
10 354 335 315 292 277 258 245 241 240 242 245 244 243 240 234 228 225 222 221 220 218 219 215 209 212 211 206 197 197 209 220 232 209 191 185 201 213 212 210 204 199 196
24 16 2 348 334 316 286 263 249 248 248 249 248 247 245 241 233 228 224 223 222 220 220 219 213 212 213 211 202 194 190 192 204 207 206 180 182 175 192 204 209 205 196
Height
1525 1527 1530 1532 1535 1538 1540 1543 1545 1547 1548 1550 1551 1552 1552 1552 1553 1553 1553 1552 1553 1553 1553 1553 1554 1554 1554 1554 1554 1554 1553 1553 1553 1553 1553 1553 1554 1554 1554 1554 1555 1556 1555
1525 1527 1530 1533 1536 1539 1541 1543 1545 1547 1549 1550 1551 1552 1552 1552 1552 1552 1552 1552 1552 1553 1554 1555 1555 1555 1555 1555 1555 1554 1554 1554 1554 1554 1555 1555 1555 1555 1555 1556 1556 1557 1556
1525 1528 1530 1533 1536 1539 1542 1544 1546 1548 1549 1550 1551 1552 1552 1552 1552 1552 1552 1552 1553 1554 1555 1556 1556 1557 1557 1556 1556 1556 1555 1555 1556 1556 1557 1558 1557 1557 1557 1557 1557 1557 1558
1525 1528 1531 1533 1537 1540 1542 1544 1546 1548 1549 1550 1551 1552 1552 1552 1552 1552 1552 1553 1554 1555 1556 1557 1558 1558 1558 1558 1557 1557 1557 1557 1558 1558 1560 1560 1560 1559 1559 1559 1559 1559 1559
1526 1529 1531 1534 1537 1540 1542 1544 1546 1548 1549 1550 1551 1552 1552 1552 1552 1552 1553 1554 1555 1556 1557 1558 1559 1559 1559 1559 1559 1559 1559 1559 1560 1560 1561 1561 1561 1560 1560 1560 1560 1560 1560
1527 1530 1532 1535 1538 1540 1543 1545 1546 1548 1549 1550 1551 1552 1552 1552 1553 1553 1554 1555 1556 1557 1558 1559 1560 1560 1560 1561 1561 1561 1561 1561 1562 1562 1562 1563 1562 1562 1561 1561 1561 1561 1561
1528 1531 1532 1535 1538 1541 1543 1545 1547 1548 1549 1550 1551 1552 1552 1553 1553 1554 1555 1556 1557 1558 1559 1560 1561 1561 1562 1562 1562 1562 1562 1563 1564 1564 1564 1564 1563 1563 1563 1562 1562 1562 1562
1529 1531 1533 1536 1539 1541 1543 1545 1547 1548 1549 1550 1551 1552 1552 1553 1554 1555 1556 1557 1558 1559 1560 1561 1561 1562 1562 1563 1563 1563 1564 1564 1565 1565 1565 1565 1564 1564 1564 1563 1563 1563 1562
1529 1531 1533 1536 1538 1541 1543 1545 1546 1548 1549 1550 1551 1552 1553 1554 1555 1556 1556 1557 1558 1559 1560 1561 1562 1562 1563 1563 1564 1564 1565 1565 1566 1566 1566 1566 1565 1565 1564 1563 1563 1563 1562
1529 1531 1533 1536 1538 1541 1543 1544 1546 1548 1549 1550 1551 1552 1553 1554 1555 1556 1557 1558 1559 1559 1560 1561 1562 1563 1563 1564 1564 1565 1565 1565 1567 1566 1567 1566 1565 1565 1564 1563 1563 1562 1561
1528 1530 1533 1536 1538 1540 1542 1544 1545 1547 1548 1549 1551 1552 1553 1554 1555 1556 1557 1558 1559 1559 1560 1561 1562 1563 1563 1564 1564 1565 1565 1566 1567 1567 1566 1565 1565 1564 1564 1563 1562 1561 1561
1526 1529 1531 1534 1536 1539 1541 1542 1544 1546 1547 1549 1550 1551 1552 1554 1555 1555 1556 1557 1558 1559 1560 1561 1561 1562 1563 1564 1564 1564 1565 1566 1566 1566 1565 1564 1564 1563 1563 1562 1561 1561 1560
1525 1527 1529 1532 1535 1537 1539 1541 1543 1544 1546 1547 1549 1550 1551 1553 1553 1554 1555 1556 1557 1558 1559 1560 1561 1562 1562 1563 1563 1564 1565 1565 1566 1565 1564 1563 1563 1563 1562 1561 1561 1560 1559
1524 1526 1528 1530 1533 1535 1537 1539 1541 1542 1544 1545 1547 1548 1549 1550 1552 1553 1554 1555 1556 1557 1558 1559 1559 1560 1561 1561 1562 1563 1563 1563 1564 1564 1563 1562 1562 1562 1561 1560 1560 1559 1559
1522 1524 1526 1528 1530 1532 1535 1536 1538 1540 1541 1543 1544 1545 1547 1548 1549 1551 1552 1553 1554 1555 1556 1557 1558 1559 1559 1560 1561 1561 1561 1562 1562 1562 1561 1560 1560 1560 1560 1559 1558 1558 1558
1520 1522 1524 1526 1528 1530 1532 1533 1535 1537 1538 1540 1541 1542 1544 1545 1546 1548 1549 1550 1551 1552 1554 1555 1556 1556 1557 1558 1558 1559 1559 1559 1559 1560 1560 1558 1558 1558 1558 1558 1557 1557 1557
1518 1520 1522 1523 1525 1527 1528 1530 1532 1534 1535 1536 1538 1539 1540 1542 1543 1544 1546 1547 1548 1549 1550 1552 1553 1554 1554 1555 1556 1556 1557 1557 1557 1557 1557 1557 1556 1556 1556 1556 1556 1556 1555
1516 1517 1519 1520 1521 1523 1525 1526 1528 1530 1531 1532 1534 1535 1536 1537 1539 1540 1541 1542 1544 1545 1547 1548 1549 1550 1551 1552 1553 1553 1554 1554 1554 1554 1554 1554 1554 1554 1553 1553 1554 1554 1553
1511 1513 1515 1516 1518 1519 1521 1522 1524 1525 1527 1528 1529 1530 1531 1533 1534 1535 1536 1538 1539 1540 1542 1543 1545 1546 1548 1549 1549 1550 1550 1550 1551 1551 1551 1551 1551 1551 1551 1550 1551 1551 1551
1506 1508 1510 1512 1513 1515 1516 1517 1519 1520 1521 1522 1523 1525 1526 1527 1529 1530 1531 1533 1534 1535 1536 1538 1540 1542 1543 1545 1546 1546 1546 1547 1547 1547 1547 1547 1547 1547 1548 1547 1547 1547 1548
1501 1502 1504 1506 1508 1510 1511 1512 1512 1514 1515 1516 1517 1519 1520 1521 1523 1524 1525 1527 1528 1529 1530 1533 1534 1536 1538 1540 1541 1542 1542 1542 1542 1542 1542 1543 1543 1543 1543 1544 1544 1544 1543
1495 1497 1499 1500 1503 1504 1505 1506 1507 1508 1509 1510 1511 1512 1514 1515 1516 1517 1518 1520 1521 1522 1524 1526 1528 1529 1531 1533 1536 1537 1538 1538 1535 1536 1537 1537 1538 1538 1539 1539 1539 1539 1539
1490 1491 1493 1494 1496 1498 1499 1500 1501 1501 1502 1503 1504 1505 1507 1508 1509 1510 1511 1512 1514 1515 1516 1518 1520 1522 1524 1526 1529 1531 1532 1531 1530 1530 1530 1531 1532 1533 1533 1534 1534 1534 1534
1485 1486 1488 1489 1490 1491 1492 1493 1494 1494 1495 1496 1498 1498 1499 1500 1501 1502 1503 1505 1506 1507 1509 1511 1512 1515 1517 1518 1520 1522 1524 1524 1525 1524 1524 1525 1526 1527 1528 1528 1529 1529 1529
1483 1483 1484 1484 1485 1486 1486 1487 1488 1488 1489 1490 1491 1491 1492 1493 1493 1494 1495 1497 1498 1500 1501 1503 1505 1507 1508 1510 1511 1513 1515 1517 1518 1520 1519 1519 1520 1521 1522 1523 1523 1523 1524
1481 1481 1481 1481 1481 1481 1481 1482 1482 1482 1483 1483 1484 1485 1485 1485 1486 1486 1488 1489 1490 1492 1493 1495 1497 1498 1500 1502 1504 1505 1507 1508 1509 1512 1513 1512 1514 1514 1515 1517 1517 1518 1518